Hourly Data Report for August 09, 2003

SHERBROOKE A
QUEBEC

45°26'00.000" N
71°41'00.000" W
241.40 m
7028124
71610
YSC

Download Data

Hourly Data (August 2003)
Hourly Data Report for August 9, 2003
TIME
LST
Temp Definition
°C
Dew Point Definition
°C
Rel Hum Definition
%
Precip. Amount Definition
mm

Wind Dir Definition
10's deg

Wind Spd Definition
km/h
Visibility Definition
km
Stn Press Definition
kPa
Hmdx Definition


Wind Chill Definition


Weather Definition


00:00 19.0 18.2 95   9 4 0.6 98.69      
01:00 19.0 18.0 94   8 4 3.7 98.69      
02:00 19.0 18.1 95   9 7 0.2 98.67      
03:00 19.0 18.2 95   10 4 0.2 98.72      
04:00 18.8 18.1 96   9 4 0.2 98.73      
05:00 18.1 17.3 95   10 4 0.3 98.79      
06:00 18.1 17.4 96   12 6 9.7 98.83      
07:00 18.8 18.1 96   13 6 0.4 98.89     Fog
08:00 19.2 18.4 95   4 4 0.6 98.90     Fog
09:00 20.5 19.2 92     0 9.7 98.93 27   Fog
10:00 22.5 20.0 86   29 6 24.1 98.95 30   Mostly Cloudy
11:00 23.7 20.0 80   23 6 24.1 98.91 31   Mostly Cloudy
12:00 26.3 20.3 70   31 6 24.1 98.90 34   Mostly Cloudy
13:00 26.7 19.6 65   32 6 24.1 98.87 34   Mainly Clear
14:00 28.1 18.7 57   31 7 24.1 98.84 35   Mostly Cloudy
15:00 27.7 19.6 61     0 24.1 98.80 35   Mostly Cloudy
16:00 27.2 20.5 67   32 6 24.1 98.80 35   Cloudy
17:00 26.5 20.8 71   32 6 15.0 98.78 35    
18:00 25.1 21.8 82   30 4 15.0 98.82 34    
19:00 23.0 18.6 76   12 13 15.0 98.87 29    
20:00 20.9 19.6 92   8 6 15.0 98.95 28    
21:00 20.6 19.5 93     0 11.3 98.94 28   Rain
22:00 20.5 19.5 94   9 9 6.4 98.92 28    
23:00 20.3 19.3 94   6 4 5.6 98.90 27    

Notes on Data Quality.

Legend

  • E = Estimated
  • M = Missing
  • NA = Not Available*
  • [empty] = Indicates an unobserved value
Date modified: